TimePDT,TemperatureF,Dew PointF,Humidity,Sea Level PressureIn,VisibilityMPH,Wind Direction,Wind SpeedMPH,Gust SpeedMPH,PrecipitationIn,Events,Conditions,WindDirDegrees,DateUTC
12:55 AM,35.1,34.0,96,30.50,10.0,SE,3.5,-,N/A,,Clear,140,2013-03-10 08:55:00
1:55 AM,35.1,33.1,92,30.49,10.0,East,3.5,-,N/A,,Overcast,100,2013-03-10 09:55:00
3:55 AM,36.0,34.0,93,30.48,10.0,Calm,Calm,-,N/A,,Overcast,0,2013-03-10 10:55:00
4:55 AM,37.4,35.6,93,30.49,10.0,Calm,Calm,-,N/A,Rain,Light Rain,0,2013-03-10 11:55:00
5:55 AM,37.0,36.0,96,30.50,10.0,Calm,Calm,-,0.01,Rain,Light Rain,0,2013-03-10 12:55:00
6:55 AM,37.9,36.0,93,30.48,10.0,Calm,Calm,-,0.00,,Overcast,0,2013-03-10 13:55:00
7:55 AM,39.0,37.0,93,30.48,7.0,Calm,Calm,-,0.00,,Overcast,0,2013-03-10 14:55:00
8:55 AM,39.9,37.9,93,30.48,9.0,Calm,Calm,-,0.00,,Overcast,0,2013-03-10 15:55:00
9:12 AM,39.2,37.4,93,30.48,10.0,Calm,Calm,-,0.01,,Overcast,0,2013-03-10 16:12:00
9:24 AM,39.2,37.4,93,30.48,10.0,Calm,Calm,-,0.01,Rain,Light Rain,0,2013-03-10 16:24:00
9:55 AM,41.0,39.0,93,30.48,6.0,Calm,Calm,-,0.02,Rain,Light Rain,0,2013-03-10 16:55:00
10:10 AM,41.0,39.2,93,30.48,5.0,Calm,Calm,-,0.00,Rain,Light Rain,0,2013-03-10 17:10:00
10:55 AM,42.1,39.9,92,30.48,4.0,ESE,3.5,-,0.03,Rain,Light Rain,120,2013-03-10 17:55:00
11:38 AM,42.8,41.0,93,30.47,7.0,Calm,Calm,-,0.02,Rain,Light Rain,0,2013-03-10 18:38:00
11:47 AM,42.8,41.0,93,30.47,9.0,SSE,3.5,-,0.02,Rain,Light Rain,150,2013-03-10 18:47:00
11:55 AM,43.0,41.0,93,30.48,10.0,Calm,Calm,-,0.02,,Overcast,0,2013-03-10 18:55:00
12:28 PM,44.6,41.0,87,30.47,10.0,Calm,Calm,-,N/A,,Overcast,0,2013-03-10 19:28:00
12:45 PM,44.6,41.0,87,30.47,7.0,Variable,3.5,-,N/A,,Overcast,0,2013-03-10 19:45:00
12:55 PM,44.1,42.1,93,30.47,5.0,Calm,Calm,-,N/A,,Overcast,0,2013-03-10 19:55:00
1:34 PM,44.6,42.8,93,30.47,2.5,NNE,3.5,-,N/A,,Overcast,20,2013-03-10 20:34:00
1:52 PM,44.6,42.8,93,30.47,1.8,NNE,4.6,-,N/A,,Overcast,20,2013-03-10 20:52:00
1:55 PM,44.1,42.1,93,30.46,1.5,North,3.5,-,N/A,,Overcast,10,2013-03-10 20:55:00
2:05 PM,44.6,42.8,93,30.46,1.2,NNE,5.8,-,N/A,,Overcast,30,2013-03-10 21:05:00
2:55 PM,44.1,42.1,93,30.45,1.2,NNE,4.6,-,0.01,,Overcast,20,2013-03-10 21:55:00
3:03 PM,44.6,42.8,93,30.45,1.5,NNE,4.6,-,N/A,,Overcast,30,2013-03-10 22:03:00
3:39 PM,44.6,42.8,93,30.45,2.0,NNE,5.8,-,N/A,,Overcast,30,2013-03-10 22:39:00
3:55 PM,44.1,43.0,96,30.45,2.0,NE,3.5,-,N/A,,Overcast,40,2013-03-10 22:55:00
4:05 PM,44.6,42.8,93,30.44,1.5,East,3.5,-,N/A,,Overcast,80,2013-03-10 23:05:00
4:35 PM,44.6,42.8,93,30.44,1.5,Calm,Calm,-,0.01,,Overcast,0,2013-03-10 23:35:00
4:55 PM,45.0,43.0,93,30.44,2.0,East,4.6,-,0.01,,Overcast,80,2013-03-10 23:55:00
5:20 PM,44.6,42.8,93,30.44,2.0,ENE,3.5,-,N/A,,Overcast,60,2013-03-11 00:20:00
5:53 PM,44.6,44.6,100,30.43,1.8,Calm,Calm,-,0.00,Rain,Light Rain,0,2013-03-11 00:53:00
5:54 PM,45.0,44.1,97,30.43,1.8,Calm,Calm,-,0.00,Rain,Light Rain,0,2013-03-11 00:54:00
6:12 PM,44.6,44.6,100,30.43,2.5,ENE,3.5,-,0.00,,Overcast,60,2013-03-11 01:12:00
6:24 PM,44.6,42.8,93,30.43,3.0,ENE,4.6,-,0.00,,Overcast,70,2013-03-11 01:24:00
6:55 PM,44.6,42.8,93,30.42,4.0,East,3.5,-,N/A,,Overcast,100,2013-03-11 01:55:00
7:55 PM,44.1,43.0,96,30.42,10.0,East,4.6,-,N/A,,Overcast,80,2013-03-11 02:55:00
8:17 PM,44.6,42.8,93,30.42,10.0,East,3.5,-,N/A,,Overcast,80,2013-03-11 03:17:00
8:55 PM,44.1,43.0,96,30.43,3.0,Calm,Calm,-,0.01,Rain,Light Rain,0,2013-03-11 03:55:00
9:43 PM,44.6,42.8,93,30.43,2.5,Calm,Calm,-,0.00,,Overcast,0,2013-03-11 04:43:00
9:55 PM,44.6,42.8,93,30.43,2.5,Calm,Calm,-,N/A,,Overcast,0,2013-03-11 04:55:00
10:05 PM,44.6,42.8,93,30.43,3.0,Calm,Calm,-,N/A,,Overcast,0,2013-03-11 05:05:00
10:35 PM,44.6,42.8,93,30.43,4.0,Calm,Calm,-,N/A,,Overcast,0,2013-03-11 05:35:00
10:55 PM,44.1,43.0,96,30.43,6.0,SSE,3.5,-,N/A,,Overcast,150,2013-03-11 05:55:00
11:28 PM,44.6,44.6,100,30.42,10.0,Calm,Calm,-,N/A,,Overcast,0,2013-03-11 06:28:00
11:55 PM,45.0,44.1,97,30.41,10.0,Calm,Calm,-,N/A,,Overcast,0,2013-03-11 06:55:00
12:09 AM,44.6,44.6,100,30.42,10.0,NE,3.5,-,N/A,,Overcast,50,2013-03-11 07:09:00
12:55 AM,45.0,44.1,97,30.42,2.5,Calm,Calm,-,N/A,,Overcast,0,2013-03-11 07:55:00